Location: Kaltenbach
(49.2000°N, 7.7500°E)
Time: 09:45:04
(UTC+00:00)

Cosmos 1339 Rocket - Pass Details

Date: 24 January 2020
Orbit: 941 x 1006 km, 82.9° (Epoch: 18 February)

Event Time Altitude Azimuth Distance (km) Brightness Sun altitude
Rises 17:52:16 0° 349° (N) 3,619 7.5 -16.2°
Reaches altitude 10° 17:54:45 10° 349° (N) 2,672 6.8 -16.6°
Maximum altitude 18:00:51 83° 263° (W) 962 4.5 -17.6°
Drops below altitude 10° 18:06:59 10° 176° (S) 2,680 6.9 -18.6°
Sets 18:09:28 0° 176° (S) 3,630 7.5 -19.0°
